Location: Observatoire
(46.1952°N, 5.3391°E)
Time: 22:31:25
(UTC+01:00)

Courier 1B Rocket - Pass Details

Date: 21 February 2026
Orbit: 920 x 1201 km, 28.2° (Epoch: 11 March)

Event Time Altitude Azimuth Distance (km) Brightness Sun altitude
Rises 21:24:53 0° 241° (WSW) 3,550 8.4 -33.4°
Reaches altitude 10° 21:29:01 10° 215° (SW) 2,629 7.4 -34.0°
Enters shadow 21:29:30 11° 211° (SSW) 2,564 7.2 -34.1°
Maximum altitude 21:31:46 13° 189° (S) 2,429 - -34.5°
Drops below altitude 10° 21:34:35 10° 163° (SSE) 2,680 - -34.9°
Sets 21:38:54 0° 137° (SE) 3,683 - -35.6°
